Weather History for Bloomington, IN

Change the Weather History Date:

Thursday, January 28, 2010

  Actual Average Record
Temperature  
Mean Temperature 23 °F 30 °F  
Max Temperature 33 °F 39 °F 68 °F (2002)
Min Temperature 12 °F 21 °F -4 °F (2014)
Degree Days  
Heating Degree Days 42 35  
Month to date heating degree days 1084 1002  
Since 1 July heating degree days 3152 3075  
Cooling Degree Days 0 0  
Month to date cooling degree days 0 0  
Year to date cooling degree days 0 0  
Moisture  
Dew Point 14 °F    
Average Humidity 73    
Maximum Humidity 100    
Minimum Humidity 45    
Precipitation  
Precipitation 0.05 in 0.09 in 0.52 in (2009)
Month to date precipitation 1.46 3.04  
Year to date precipitation 1.46 3.04  
Sea Level Pressure  
Sea Level Pressure 30.34 in    
Wind  
Wind Speed 9 mph (NW)    
Max Wind Speed 20 mph    
Max Gust Speed 26 mph    
Visibility 9 miles    
Events Snow    
T = Trace of Precipitation, MM = Missing Value Source: NWS Daily Summary

Daily Weather History Graph

Daily Weather History Graph

Search for Another Location

Airport:

Trip Planner

Search our weather history database for the weather conditions in past years. The results will help you decide how hot, cold, wet, or windy it might be!

Date:

Astronomy

Jan. 28, 2010 Rise Set
Actual Time 7:56 AM EST 6:02 PM EST
Civil Twilight 7:28 AM EST 6:31 PM EST
Nautical Twilight 6:55 AM EST 7:03 PM EST
Astronomical Twilight 6:24 AM EST 7:35 PM EST
Moon 4:22 PM EST (1/28) 6:36 AM EST (1/28)
Length of Visible Light 11h 03m
Length of Day
10h 06m
Waxing Gibbous, 96% of the Moon is Illuminated
Jan 28
Waxing Gibbous
Jan 30
Full
Feb 5
Last Quarter
Feb 13
New
Feb 21
First Quarter

Hourly Weather History & Observations

Time (EST) Temp. Windchill Dew Point Humidity Pressure Visibility Wind Dir Wind Speed Gust Speed Precip Events Conditions
12:12 AM 32.0 °F 24.8 °F 30.2 °F 93% 30.15 in 2.0 mi WSW 8.1 mph - 0.00 in Snow Light Snow
12:42 AM 33.8 °F 26.4 °F 30.2 °F 87% 30.15 in 3.0 mi WSW 9.2 mph - 0.00 in Snow Light Snow
12:53 AM 32.0 °F 24.2 °F 30.9 °F 96% 30.17 in 3.0 mi WSW 9.2 mph - 0.01 in Snow Light Snow
1:38 AM 32.0 °F 23.6 °F 32.0 °F 100% 30.14 in 3.0 mi West 10.4 mph - 0.01 in   Overcast
1:53 AM 32.0 °F 24.2 °F 32.0 °F 100% 30.15 in 4.0 mi West 9.2 mph - 0.02 in   Overcast
2:53 AM 33.1 °F 24.9 °F 30.9 °F 92% 30.16 in 7.0 mi WNW 10.4 mph 19.6 mph 0.02 in   Overcast
3:53 AM 32.0 °F 22.1 °F 28.9 °F 88% 30.19 in 10.0 mi NW 13.8 mph 26.5 mph N/A   Overcast
4:41 AM 28.4 °F 18.5 °F 24.8 °F 86% 30.19 in 10.0 mi WNW 11.5 mph 20.7 mph N/A   Overcast
5:53 AM 23.0 °F 13.1 °F 17.1 °F 78% 30.26 in 10.0 mi WNW 9.2 mph 18.4 mph N/A   Scattered Clouds
6:02 AM 23.0 °F 12.4 °F 17.6 °F 80% 30.24 in 10.0 mi WNW 10.4 mph 17.3 mph N/A   Mostly Cloudy
6:53 AM 21.0 °F 12.4 °F 15.1 °F 78% 30.30 in 10.0 mi WNW 6.9 mph 19.6 mph N/A   Partly Cloudy
7:30 AM 19.4 °F 7.9 °F 14.0 °F 80% 30.29 in 10.0 mi WNW 10.4 mph 16.1 mph N/A   Mostly Cloudy
7:53 AM 18.0 °F 7.7 °F 12.0 °F 78% 30.35 in 10.0 mi WNW 8.1 mph 20.7 mph N/A   Partly Cloudy
8:53 AM 17.1 °F 6.6 °F 9.0 °F 71% 30.38 in 10.0 mi NW 8.1 mph 18.4 mph N/A   Clear
9:53 AM 17.1 °F 5.8 °F 7.0 °F 65% 30.41 in 10.0 mi NW 9.2 mph 19.6 mph N/A   Clear
10:53 AM 18.0 °F 8.7 °F 7.0 °F 62% 30.43 in 10.0 mi Variable 6.9 mph - N/A   Clear
11:53 AM 19.9 °F 11.1 °F 6.1 °F 55% 30.45 in 10.0 mi NNW 6.9 mph - N/A   Clear
12:53 PM 21.0 °F 10.6 °F 6.1 °F 53% 30.44 in 10.0 mi North 9.2 mph - N/A   Clear
1:53 PM 21.0 °F 13.4 °F 3.9 °F 48% 30.42 in 10.0 mi NW 5.8 mph - N/A   Clear
2:53 PM 21.9 °F 13.4 °F 6.1 °F 51% 30.41 in 10.0 mi North 6.9 mph - N/A   Clear
3:53 PM 21.9 °F 15.7 °F 5.0 °F 48% 30.43 in 10.0 mi NNW 4.6 mph - N/A   Clear
4:53 PM 21.0 °F 13.4 °F 3.9 °F 48% 30.43 in 10.0 mi WNW 5.8 mph - N/A   Clear
5:53 PM 19.0 °F 11.1 °F 3.9 °F 52% 30.45 in 10.0 mi North 5.8 mph - N/A   Clear
6:53 PM 15.1 °F 1.8 °F 3.9 °F 61% 30.47 in 10.0 mi North 11.5 mph - N/A   Clear
7:53 PM 12.9 °F 1.6 °F 3.9 °F 67% 30.49 in 10.0 mi North 8.1 mph - N/A   Clear
8:53 PM 12.9 °F 2.6 °F 3.9 °F 67% 30.50 in 10.0 mi NNE 6.9 mph - N/A   Clear
9:53 PM 12.9 °F -0.9 °F 3.9 °F 67% 30.51 in 10.0 mi North 11.5 mph - N/A   Clear
10:53 PM 12.0 °F 0.5 °F 3.9 °F 70% 30.50 in 10.0 mi North 8.1 mph - N/A   Clear
11:53 PM 12.0 °F 1.5 °F 3.0 °F 67% 30.51 in 10.0 mi NNE 6.9 mph - N/A   Clear